Kuchera_Ratio
0.0 0.0 0.0 0.0 0.0 0.0 0.0 0.0 0.0 0.0 0.0 0.0 0.0 0.0 0.0 0.0 0.0 0.0 0.0 0.0 0.0 0.0
0.0 0.0 0.0 0.0 0.0 0.0 0.0 0.0 0.0 0.0 0.0 0.0 0.0 0.0 0.0 0.0 0.0 0.0 0.0 0.0 0.0 0.0
0.0 0.0 0.0 0.0 0.0 0.0 0.0 0.0 0.0 0.0 0.0 0.0 0.0 0.0 0.0 0.0 0.0 0.0 0.0 0.0 0.0 0.0
0.0 0.0 0.0 0.0 0.0 0.0 0.0 0.0 0.0 0.0 0.0 0.0 0.0 0.0 0.0 0.0 0.0 0.0 0.0 0.0 0.0 0.0
0.0 0.0 0.0 0.0 0.0 0.0 0.0 0.0 0.0 0.0 0.0 0.0 0.0 0.0 0.0 0.0 0.0 0.0 0.0 0.0 0.0 0.0
0.0 0.0 0.0 0.0 0.0 0.0 0.0 0.0 0.0 0.0 0.0 0.0 0.0 0.0 0.0 0.0 0.0 0.0 0.0 0.0 0.0 0.0
0.0 0.0 0.0 0.0 0.0 0.0 0.0 0.0 0.0 0.0 0.0 0.0 0.0 0.0 0.0 0.0 0.0 0.0 0.0 0.0 0.0 0.0
0.0 0.0 0.0 0.0 0.0 0.0 0.0 0.0 0.0 0.0 0.0 0.0 0.0 0.0 0.5 1.0 2.3 3.1 2.4 2.4 1.8 1.7
0.0 0.0 0.0 0.0 0.4 0.7 1.1 1.2 0.6 0.0 0.0 0.0 0.0 0.0 0.0 1.8 3.8 4.5 5.6 6.4 5.5 3.8
0.0 1.0 1.6 1.7 2.3 3.2 3.9 3.8 3.5 2.9 1.7 1.0 0.0 0.0 0.0 2.0 6.4 7.3 7.2 7.2 7.3 6.2
1.5 2.6 2.5 3.0 4.1 4.6 4.8 5.1 5.5 5.2 4.2 2.8 0.2 0.0 0.0 1.9 8.0 8.7 8.8 8.9 7.9 8.1
1.8 3.3 3.8 5.4 5.7 5.4 5.9 5.7 5.3 5.4 6.0 5.8 4.9 0.0 0.0 6.1 7.6 7.9 7.8 8.0 8.5 8.9
1.4 3.1 4.6 5.0 5.1 5.4 6.0 5.8 5.9 7.0 6.9 2.2 6.2 0.0 0.0 6.4 8.1 8.1 8.0 8.4 9.3 1.1
2.3 3.7 4.0 4.9 5.5 5.6 6.1 6.4 7.0 7.3 7.1 7.4 7.6 6.9 0.0 0.0 6.9 6.6 6.6 7.1 8.2 9.0